Change the Weather History Date:

Sunday, March 3, 2013

  Actual Average (KTYS) Record (KTYS)
Temperature  
Mean Temperature 28 °F 47 °F  
Max Temperature 34 °F 57 °F 76 °F (1951)
Min Temperature 22 °F 36 °F 1 °F (1980)
Degree Days  
Heating Degree Days 37 18  
Month to date heating degree days 56  
Since 1 July heating degree days 2952  
Cooling Degree Days 0 0  
Month to date cooling degree days 0  
Year to date cooling degree days 0  
Moisture  
Dew Point 16 °F    
Average Humidity 61    
Maximum Humidity 84    
Minimum Humidity 48    
Precipitation  
Precipitation 0.00 in 0.14 in 1.98 in (1871)
Month to date precipitation 0.43  
Year to date precipitation 9.01  
Snow  
Snow 0.00 in 0.00 in - ()
Month to date snowfall 0.1  
Since 1 July snowfall 5.2  
Snow Depth -    
Sea Level Pressure  
Sea Level Pressure 30.00 in    
Wind  
Wind Speed 6 mph (NNE)    
Max Wind Speed 16 mph    
Max Gust Speed 24 mph    
Visibility 9 miles    
Events Snow    
T = Trace of Precipitation, MM = Missing Value Source: NWS Daily Summary

Daily Weather History Graph

Daily Weather History Graph

Search for Another Location

Airport or City:

Trip Planner

Search our weather history database for the weather conditions in past years. The results will help you decide how hot, cold, wet, or windy it might be!

Date:

Astronomy

Mar. 03, 2013 Rise Set
Actual Time 7:02 AM EST 6:33 PM EST
Civil Twilight 6:36 AM EST 6:58 PM EST
Nautical Twilight 6:07 AM EST 7:27 PM EST
Astronomical Twilight 5:37 AM EST 7:57 PM EST
Moon No Moon Rise 10:31 AM EST (3/3)
Length of Visible Light 12h 21m
Length of Day
11h 30m
Waning Gibbous, 64% of the Moon is Illuminated
Mar 3
Waning Gibbous
Mar 4
Last Quarter
Mar 11
New
Mar 19
First Quarter
Mar 27
Full

Hourly Weather History & Observations

Time (EST) Temp. Windchill Dew Point Humidity Pressure Visibility Wind Dir Wind Speed Gust Speed Precip Events Conditions
12:15 AM 28.0 °F 22.8 °F 18.0 °F 66% 29.98 in 10.0 mi NNE 4.6 mph - N/A Snow Light Snow
12:35 AM 28.2 °F 20.2 °F 17.6 °F 64% 29.99 in 10.0 mi NE 8.1 mph - N/A   Overcast
12:55 AM 27.7 °F 19.6 °F 18.5 °F 68% 29.99 in 10.0 mi NE 8.1 mph - N/A Snow Light Snow
1:15 AM 27.5 °F 18.6 °F 18.5 °F 69% 29.99 in 10.0 mi East 9.2 mph - N/A Snow Light Snow
1:35 AM 27.5 °F 21.1 °F 18.1 °F 68% 29.99 in 10.0 mi North 5.8 mph - N/A Snow Light Snow
1:55 AM 27.3 °F 19.1 °F 17.4 °F 66% 29.99 in 10.0 mi North 8.1 mph - N/A Snow Light Snow
2:15 AM 27.1 °F 18.9 °F 16.2 °F 63% 29.98 in 10.0 mi NE 8.1 mph 17.3 mph N/A   Overcast
2:35 AM 27.1 °F 21.8 °F 16.3 °F 64% 29.98 in 10.0 mi NNE 4.6 mph - N/A   Overcast
2:55 AM 27.1 °F 23.2 °F 16.3 °F 64% 29.98 in 10.0 mi North 3.5 mph - N/A Snow Light Snow
3:15 AM 27.0 °F 23.0 °F 16.2 °F 64% 29.97 in 10.0 mi NNE 3.5 mph - N/A   Overcast
3:35 AM 26.6 °F - 17.6 °F 69% 29.97 in 10.0 mi Calm Calm - N/A Snow Light Snow
4:15 AM 26.6 °F 20.0 °F 17.1 °F 67% 29.97 in 7.0 mi NE 5.8 mph - N/A Snow Light Snow
4:35 AM 26.4 °F 22.4 °F 18.1 °F 71% 29.97 in 7.0 mi ENE 3.5 mph - N/A Snow Light Snow
4:55 AM 26.1 °F 20.5 °F 18.9 °F 74% 29.97 in 5.0 mi NE 4.6 mph - N/A Snow Light Snow
5:35 AM 25.7 °F - 20.3 °F 80% 29.96 in 5.0 mi Calm Calm - N/A Snow Light Snow
5:55 AM 25.3 °F - 21.0 °F 84% 29.97 in 4.0 mi Calm Calm - N/A Snow Light Snow
6:15 AM 25.2 °F - 20.1 °F 81% 29.97 in 5.0 mi Calm Calm - N/A Snow Light Snow
6:35 AM 25.5 °F 21.3 °F 18.5 °F 75% 29.97 in 3.0 mi NE 3.5 mph - N/A Snow Light Snow
6:55 AM 25.0 °F 19.3 °F 14.7 °F 65% 29.98 in 5.0 mi North 4.6 mph 20.7 mph N/A Snow Light Snow
7:15 AM 24.6 °F 17.7 °F 13.8 °F 64% 29.98 in 10.0 mi NNE 5.8 mph 18.4 mph N/A Snow Light Snow
7:35 AM 24.4 °F 17.5 °F 12.6 °F 61% 29.99 in 10.0 mi NE 5.8 mph 16.1 mph N/A   Mostly Cloudy
7:55 AM 24.6 °F - 11.7 °F 58% 29.99 in 10.0 mi Calm Calm - N/A   Mostly Cloudy
8:15 AM 25.3 °F 17.6 °F 11.5 °F 56% 29.99 in 10.0 mi East 6.9 mph - N/A   Scattered Clouds
8:35 AM 25.9 °F 20.3 °F 11.3 °F 54% 30.00 in 10.0 mi NE 4.6 mph - N/A   Scattered Clouds
8:55 AM 26.4 °F 16.0 °F 11.5 °F 53% 30.00 in 10.0 mi East 11.5 mph 16.1 mph N/A   Overcast
9:15 AM 27.5 °F - 12.2 °F 53% 30.00 in 10.0 mi Calm Calm - N/A   Mostly Cloudy
9:35 AM 27.3 °F 15.2 °F 12.2 °F 53% 30.00 in 10.0 mi NNW 16.1 mph 24.2 mph N/A   Scattered Clouds
9:55 AM 28.2 °F 19.5 °F 12.6 °F 52% 30.00 in 10.0 mi NNW 9.2 mph 20.7 mph N/A   Scattered Clouds
10:15 AM 28.6 °F 19.3 °F 14.0 °F 54% 30.01 in 10.0 mi NNE 10.4 mph 16.1 mph N/A   Scattered Clouds
10:35 AM 28.8 °F 19.0 °F 14.7 °F 56% 30.00 in 10.0 mi North 11.5 mph 21.9 mph N/A   Mostly Cloudy
10:55 AM 27.3 °F 15.6 °F 12.9 °F 55% 30.01 in 10.0 mi North 15.0 mph 23.0 mph N/A   Scattered Clouds
11:15 AM 29.1 °F 21.3 °F 13.5 °F 52% 30.00 in 10.0 mi NNE 8.1 mph 17.3 mph N/A   Clear
11:35 AM 30.2 °F 21.3 °F 15.3 °F 54% 30.00 in 10.0 mi North 10.4 mph - N/A   Scattered Clouds
11:55 AM 30.9 °F 21.2 °F 15.3 °F 52% 29.99 in 10.0 mi NNE 12.7 mph 20.7 mph N/A   Scattered Clouds
12:15 PM 31.8 °F 23.9 °F 16.0 °F 52% 29.99 in 10.0 mi NNE 9.2 mph 18.4 mph N/A   Clear
12:35 PM 32.0 °F 23.0 °F 15.8 °F 51% 29.99 in 10.0 mi NE 11.5 mph 18.4 mph N/A   Clear
12:55 PM 32.9 °F 25.9 °F 16.3 °F 51% 29.99 in 10.0 mi NNE 8.1 mph - N/A   Clear
1:15 PM 33.6 °F 24.6 °F 17.2 °F 51% 29.98 in 10.0 mi NNE 12.7 mph 18.4 mph N/A   Clear
1:35 PM 33.8 °F 24.8 °F 16.7 °F 50% 29.98 in 10.0 mi NE 12.7 mph 19.6 mph N/A   Scattered Clouds
1:55 PM 33.8 °F 27.0 °F 16.5 °F 49% 29.97 in 10.0 mi North 8.1 mph 18.4 mph N/A   Scattered Clouds
2:15 PM 33.6 °F 25.0 °F 16.2 °F 49% 29.97 in 10.0 mi North 11.5 mph 21.9 mph N/A   Clear
2:35 PM 33.8 °F 25.3 °F 16.0 °F 48% 29.97 in 10.0 mi NNE 11.5 mph 21.9 mph N/A   Clear
2:55 PM 34.2 °F 24.4 °F 16.7 °F 49% 29.97 in 10.0 mi NNE 15.0 mph 20.7 mph N/A   Clear
3:15 PM 33.6 °F 25.6 °F 16.5 °F 50% 29.98 in 10.0 mi North 10.4 mph 23.0 mph N/A   Clear
3:35 PM 34.3 °F 25.9 °F 16.7 °F 49% 29.99 in 10.0 mi North 11.5 mph - N/A   Clear
3:55 PM 33.8 °F 24.8 °F 16.7 °F 50% 29.99 in 10.0 mi NNE 12.7 mph 16.1 mph N/A   Clear
4:15 PM 34.0 °F 29.8 °F 16.5 °F 49% 29.99 in 10.0 mi North 4.6 mph - N/A   Clear
4:55 PM 32.2 °F 26.7 °F 16.0 °F 51% 29.99 in 10.0 mi NNW 5.8 mph - N/A   Clear
5:15 PM 32.9 °F 25.3 °F 17.2 °F 53% 30.00 in 10.0 mi North 9.2 mph - N/A   Scattered Clouds
5:35 PM 32.7 °F 25.7 °F 16.7 °F 52% 30.00 in 10.0 mi NE 8.1 mph - N/A   Mostly Cloudy
5:55 PM 32.0 °F 24.8 °F 16.7 °F 53% 30.00 in 10.0 mi NE 8.1 mph - N/A   Overcast
6:15 PM 31.5 °F 24.9 °F 16.2 °F 53% 30.01 in 10.0 mi North 6.9 mph - N/A   Overcast
6:35 PM 30.7 °F 27.3 °F 15.6 °F 54% 30.01 in 10.0 mi North 3.5 mph - N/A   Scattered Clouds
6:55 PM 29.8 °F 26.3 °F 15.4 °F 55% 30.02 in 10.0 mi NNW 3.5 mph - N/A   Clear
7:35 PM 29.3 °F 25.6 °F 14.9 °F 55% 30.03 in 10.0 mi North 3.5 mph - N/A   Clear
7:55 PM 28.9 °F 23.9 °F 15.4 °F 57% 30.04 in 10.0 mi North 4.6 mph - N/A   Clear
8:15 PM 28.9 °F 23.9 °F 15.3 °F 57% 30.04 in 10.0 mi ENE 4.6 mph - N/A   Clear
8:35 PM 27.5 °F 23.6 °F 16.2 °F 62% 30.04 in 10.0 mi NNE 3.5 mph - N/A   Clear
8:55 PM 27.9 °F - 15.8 °F 61% 30.05 in 10.0 mi Calm Calm - N/A   Clear
9:15 PM 27.5 °F 23.6 °F 16.3 °F 63% 30.04 in 10.0 mi ESE 3.5 mph - N/A   Clear
9:35 PM 25.5 °F - 17.1 °F 70% 30.04 in 10.0 mi Calm Calm - N/A   Clear
9:55 PM 25.0 °F - 17.6 °F 74% 30.04 in 10.0 mi Calm Calm - N/A   Clear
10:15 PM 23.9 °F - 16.9 °F 75% 30.05 in 10.0 mi Calm Calm - N/A   Clear
10:35 PM 24.6 °F - 17.4 °F 74% 30.05 in 10.0 mi Calm Calm - N/A   Clear
10:55 PM 22.6 °F - 17.2 °F 80% 30.04 in 10.0 mi Calm Calm - N/A   Clear
11:15 PM 24.1 °F - 16.7 °F 73% 30.04 in 10.0 mi Calm Calm - N/A   Clear
11:35 PM 23.5 °F - 17.8 °F 79% 30.04 in 10.0 mi Calm Calm - N/A   Clear
11:55 PM 23.0 °F - 18.3 °F 82% 30.05 in 10.0 mi Calm Calm - N/A   Clear